Year,Month,Day,Hour,Minute,Value (Times are PST for temperature in C)
2015,07,16,00,00,18.30
2015,07,16,00,01,18.30
2015,07,16,00,02,18.30
2015,07,16,00,03,18.40
2015,07,16,00,04,18.40
2015,07,16,00,05,18.40
2015,07,16,00,06,18.40
2015,07,16,00,07,18.40
2015,07,16,00,08,18.50
2015,07,16,00,09,18.50
2015,07,16,00,10,18.50
2015,07,16,00,11,18.50
2015,07,16,00,12,18.50
2015,07,16,00,13,18.50
2015,07,16,00,14,18.60
2015,07,16,00,15,18.60
2015,07,16,00,16,18.60
2015,07,16,00,17,18.60
2015,07,16,00,18,18.60
2015,07,16,00,19,18.70
2015,07,16,00,20,18.70
2015,07,16,00,21,18.70
2015,07,16,00,22,18.70
2015,07,16,00,23,18.80
2015,07,16,00,24,18.80
2015,07,16,00,25,18.80
2015,07,16,00,26,18.80
2015,07,16,00,27,18.90
2015,07,16,00,28,18.90
2015,07,16,00,29,18.90
2015,07,16,00,30,19.00
2015,07,16,00,31,19.00
2015,07,16,00,32,19.00
2015,07,16,00,33,19.10
2015,07,16,00,34,19.10
2015,07,16,00,35,19.10
2015,07,16,00,36,19.10
2015,07,16,00,37,19.20
2015,07,16,00,38,19.20
2015,07,16,00,39,19.20
2015,07,16,00,40,19.20
2015,07,16,00,41,19.20
2015,07,16,00,42,19.20
2015,07,16,00,43,19.20
2015,07,16,00,44,19.30
2015,07,16,00,45,19.30
2015,07,16,00,46,19.30
2015,07,16,00,47,19.30
2015,07,16,00,48,19.30
2015,07,16,00,49,19.30
2015,07,16,00,50,19.30
2015,07,16,00,51,19.30
2015,07,16,00,52,19.30
2015,07,16,00,53,19.30
2015,07,16,00,54,19.30
2015,07,16,00,55,19.30
2015,07,16,00,56,19.30
2015,07,16,00,57,19.20
2015,07,16,00,58,19.20
2015,07,16,00,59,19.20
2015,07,16,01,00,19.20
2015,07,16,01,01,19.20
2015,07,16,01,02,19.20
2015,07,16,01,03,19.20
2015,07,16,01,04,19.20
2015,07,16,01,05,19.20
2015,07,16,01,06,19.20
2015,07,16,01,07,19.20
2015,07,16,01,08,19.20
2015,07,16,01,09,19.20
2015,07,16,01,10,19.20
2015,07,16,01,11,19.10
2015,07,16,01,12,19.10
2015,07,16,01,13,19.10
2015,07,16,01,14,19.10
2015,07,16,01,15,19.10
2015,07,16,01,16,19.10
2015,07,16,01,17,19.10
2015,07,16,01,18,19.10
2015,07,16,01,19,19.10
2015,07,16,01,20,19.10
2015,07,16,01,21,19.10
2015,07,16,01,22,19.10
2015,07,16,01,23,19.00
2015,07,16,01,24,19.00
2015,07,16,01,25,19.00
2015,07,16,01,26,19.00
2015,07,16,01,27,19.00
2015,07,16,01,28,19.00
2015,07,16,01,29,19.00
2015,07,16,01,30,19.00
2015,07,16,01,31,19.00
2015,07,16,01,32,18.90
2015,07,16,01,33,18.90
2015,07,16,01,34,18.90
2015,07,16,01,35,18.90
2015,07,16,01,36,18.90
2015,07,16,01,37,18.90
2015,07,16,01,38,18.90
2015,07,16,01,39,18.90
2015,07,16,01,40,18.90
2015,07,16,01,41,18.90
2015,07,16,01,42,18.90
2015,07,16,01,43,18.90
2015,07,16,01,44,18.90
2015,07,16,01,45,18.90
2015,07,16,01,46,18.90
2015,07,16,01,47,18.90
2015,07,16,01,48,18.90
2015,07,16,01,49,18.90
2015,07,16,01,50,18.90
2015,07,16,01,51,18.90
2015,07,16,01,52,18.90
2015,07,16,01,53,18.90
2015,07,16,01,54,18.90
2015,07,16,01,55,18.90
2015,07,16,01,56,18.90
2015,07,16,01,57,18.90
2015,07,16,01,58,18.80
2015,07,16,01,59,18.80
2015,07,16,02,00,18.80
2015,07,16,02,01,18.80
2015,07,16,02,02,18.80
2015,07,16,02,03,18.80
2015,07,16,02,04,18.80
2015,07,16,02,05,18.80
2015,07,16,02,06,18.80
2015,07,16,02,07,18.80
2015,07,16,02,08,18.80
2015,07,16,02,09,18.80
2015,07,16,02,10,18.80
2015,07,16,02,11,18.80
2015,07,16,02,12,18.70
2015,07,16,02,13,18.70
2015,07,16,02,14,18.70
2015,07,16,02,15,18.70
2015,07,16,02,16,18.70
2015,07,16,02,17,18.70
2015,07,16,02,18,18.70
2015,07,16,02,19,18.70
2015,07,16,02,20,18.70
2015,07,16,02,21,18.70
2015,07,16,02,22,18.70
2015,07,16,02,23,18.70
2015,07,16,02,24,18.70
2015,07,16,02,25,18.70
2015,07,16,02,26,18.70
2015,07,16,02,27,18.70
2015,07,16,02,28,18.70
2015,07,16,02,29,18.60
2015,07,16,02,30,18.60
2015,07,16,02,31,18.60
2015,07,16,02,32,18.60
2015,07,16,02,33,18.60
2015,07,16,02,34,18.60
2015,07,16,02,35,18.60
2015,07,16,02,36,18.60
2015,07,16,02,37,18.60
2015,07,16,02,38,18.60
2015,07,16,02,39,18.60
2015,07,16,02,40,18.60
2015,07,16,02,41,18.60
2015,07,16,02,42,18.50
2015,07,16,02,43,18.50
2015,07,16,02,44,18.50
2015,07,16,02,45,18.50
2015,07,16,02,46,18.50
2015,07,16,02,47,18.40
2015,07,16,02,48,18.40
2015,07,16,02,49,18.40
2015,07,16,02,50,18.40
2015,07,16,02,51,18.40
2015,07,16,02,52,18.40
2015,07,16,02,53,18.40
2015,07,16,02,54,18.40
2015,07,16,02,55,18.40
2015,07,16,02,56,18.30
2015,07,16,02,57,18.30
2015,07,16,02,58,18.30
2015,07,16,02,59,18.30
2015,07,16,03,00,18.30
2015,07,16,03,01,18.30
2015,07,16,03,02,18.20
2015,07,16,03,03,18.20
2015,07,16,03,04,18.20
2015,07,16,03,05,18.20
2015,07,16,03,06,18.20
2015,07,16,03,07,18.10
2015,07,16,03,08,18.10
2015,07,16,03,09,18.10
2015,07,16,03,10,18.10
2015,07,16,03,11,18.10
2015,07,16,03,12,18.00
2015,07,16,03,13,18.00
2015,07,16,03,14,18.00
2015,07,16,03,15,18.00
2015,07,16,03,16,18.00
2015,07,16,03,17,17.90
2015,07,16,03,18,17.90
2015,07,16,03,19,17.90
2015,07,16,03,20,17.90
2015,07,16,03,21,17.90
2015,07,16,03,22,17.90
2015,07,16,03,23,17.80
2015,07,16,03,24,17.80
2015,07,16,03,25,17.80
2015,07,16,03,26,17.80
2015,07,16,03,27,17.80
2015,07,16,03,28,17.80
2015,07,16,03,29,17.70
2015,07,16,03,30,17.70
2015,07,16,03,31,17.70
2015,07,16,03,32,17.70
2015,07,16,03,33,17.70
2015,07,16,03,34,17.70
2015,07,16,03,35,17.70
2015,07,16,03,36,17.70
2015,07,16,03,37,17.70
2015,07,16,03,38,17.60
2015,07,16,03,39,17.60
2015,07,16,03,40,17.60
2015,07,16,03,41,17.60
2015,07,16,03,42,17.60
2015,07,16,03,43,17.60
2015,07,16,03,44,17.60
2015,07,16,03,45,17.60
2015,07,16,03,46,17.50
2015,07,16,03,47,17.50
2015,07,16,03,48,17.50
2015,07,16,03,49,17.50
2015,07,16,03,50,17.50
2015,07,16,03,51,17.50
2015,07,16,03,52,17.40
2015,07,16,03,53,17.40
2015,07,16,03,54,17.40
2015,07,16,03,55,17.40
2015,07,16,03,56,17.40
2015,07,16,03,57,17.40
2015,07,16,03,58,17.40
2015,07,16,03,59,17.40
2015,07,16,04,00,17.40
2015,07,16,04,01,17.30
2015,07,16,04,02,17.30
2015,07,16,04,03,17.30
2015,07,16,04,04,17.30
2015,07,16,04,05,17.30
2015,07,16,04,06,17.30
2015,07,16,04,07,17.30
2015,07,16,04,08,17.30
2015,07,16,04,09,17.20
2015,07,16,04,10,17.20
2015,07,16,04,11,17.20
2015,07,16,04,12,17.20
2015,07,16,04,13,17.20
2015,07,16,04,14,17.20
2015,07,16,04,15,17.10
2015,07,16,04,16,17.10
2015,07,16,04,17,17.10
2015,07,16,04,18,17.10
2015,07,16,04,19,17.10
2015,07,16,04,20,17.10
2015,07,16,04,21,17.10
2015,07,16,04,22,17.10
2015,07,16,04,23,17.10
2015,07,16,04,24,17.10
2015,07,16,04,25,17.10
2015,07,16,04,26,17.10
2015,07,16,04,27,17.10
2015,07,16,04,28,17.10
2015,07,16,04,29,17.10
2015,07,16,04,30,17.10
2015,07,16,04,31,17.10
2015,07,16,04,32,17.10
2015,07,16,04,33,17.10
2015,07,16,04,34,17.10
2015,07,16,04,35,17.10
2015,07,16,04,36,17.10
2015,07,16,04,37,17.10
2015,07,16,04,38,17.10
2015,07,16,04,39,17.10
2015,07,16,04,40,17.00
2015,07,16,04,41,17.00
2015,07,16,04,42,17.00
2015,07,16,04,43,17.00
2015,07,16,04,44,17.00
2015,07,16,04,45,17.00
2015,07,16,04,46,17.00
2015,07,16,04,47,17.00
2015,07,16,04,48,16.90
2015,07,16,04,49,16.90
2015,07,16,04,50,16.90
2015,07,16,04,51,16.90
2015,07,16,04,52,16.90
2015,07,16,04,53,16.90
2015,07,16,04,54,16.90
2015,07,16,04,55,16.90
2015,07,16,04,56,16.90
2015,07,16,04,57,16.90
2015,07,16,04,58,16.80
2015,07,16,04,59,16.80
2015,07,16,05,00,16.80
2015,07,16,05,01,16.80
2015,07,16,05,02,16.80
2015,07,16,05,03,16.70
2015,07,16,05,04,16.70
2015,07,16,05,05,16.70
2015,07,16,05,06,16.70
2015,07,16,05,07,16.70
2015,07,16,05,08,16.60
2015,07,16,05,09,16.60
2015,07,16,05,10,16.60
2015,07,16,05,11,16.60
2015,07,16,05,12,16.60
2015,07,16,05,13,16.60
2015,07,16,05,14,16.60
2015,07,16,05,15,16.60
2015,07,16,05,16,16.60
2015,07,16,05,17,16.50
2015,07,16,05,18,16.50
2015,07,16,05,19,16.50
2015,07,16,05,20,16.50
2015,07,16,05,21,16.50
2015,07,16,05,22,16.50
2015,07,16,05,23,16.40
2015,07,16,05,24,16.40
2015,07,16,05,25,16.40
2015,07,16,05,26,16.40
2015,07,16,05,27,16.40
2015,07,16,05,28,16.40
2015,07,16,05,29,16.40
2015,07,16,05,30,16.30
2015,07,16,05,31,16.30
2015,07,16,05,32,16.30
2015,07,16,05,33,16.30
2015,07,16,05,34,16.30
2015,07,16,05,35,16.30
2015,07,16,05,36,16.30
2015,07,16,05,37,16.20
2015,07,16,05,38,16.20
2015,07,16,05,39,16.20
2015,07,16,05,40,16.20
2015,07,16,05,41,16.20
2015,07,16,05,42,16.20
2015,07,16,05,43,16.20
2015,07,16,05,44,16.30
2015,07,16,05,45,16.30
2015,07,16,05,46,16.30
2015,07,16,05,47,16.30
2015,07,16,05,48,16.30
2015,07,16,05,49,16.30
2015,07,16,05,50,16.30
2015,07,16,05,51,16.30
2015,07,16,05,52,16.30
2015,07,16,05,53,16.30
2015,07,16,05,54,16.30
2015,07,16,05,55,16.30
2015,07,16,05,56,16.30
2015,07,16,05,57,16.30
2015,07,16,05,58,16.30
2015,07,16,05,59,16.30
2015,07,16,06,00,16.30
2015,07,16,06,01,16.30
2015,07,16,06,02,16.30
2015,07,16,06,03,16.30
2015,07,16,06,04,16.30
2015,07,16,06,05,16.30
2015,07,16,06,06,16.20
2015,07,16,06,07,16.20
2015,07,16,06,08,16.20
2015,07,16,06,09,16.20
2015,07,16,06,10,16.20
2015,07,16,06,11,16.20
2015,07,16,06,12,16.20
2015,07,16,06,13,16.20
2015,07,16,06,14,16.20
2015,07,16,06,15,16.20
2015,07,16,06,16,16.20
2015,07,16,06,17,16.20
2015,07,16,06,18,16.20
2015,07,16,06,19,16.20
2015,07,16,06,20,16.20
2015,07,16,06,21,16.20
2015,07,16,06,22,16.20
2015,07,16,06,23,16.20
2015,07,16,06,24,16.20
2015,07,16,06,25,16.20
2015,07,16,06,26,16.20
2015,07,16,06,27,16.20
2015,07,16,06,28,16.20
2015,07,16,06,29,16.30
2015,07,16,06,30,16.30
2015,07,16,06,31,16.30
2015,07,16,06,32,16.30
2015,07,16,06,33,16.30
2015,07,16,06,34,16.30
2015,07,16,06,35,16.30
2015,07,16,06,36,16.30
2015,07,16,06,37,16.30
2015,07,16,06,38,16.30
2015,07,16,06,39,16.30
2015,07,16,06,40,16.30
2015,07,16,06,41,16.30
2015,07,16,06,42,16.30
2015,07,16,06,43,16.30
2015,07,16,06,44,16.30
2015,07,16,06,45,16.30
2015,07,16,06,46,16.30
2015,07,16,06,47,16.30
2015,07,16,06,48,16.30
2015,07,16,06,49,16.30
2015,07,16,06,50,16.30
2015,07,16,06,51,16.30
2015,07,16,06,52,16.30
2015,07,16,06,53,16.30
2015,07,16,06,54,16.30
2015,07,16,06,55,16.30
2015,07,16,06,56,16.30
2015,07,16,06,57,16.30
2015,07,16,06,58,16.40
2015,07,16,06,59,16.40
2015,07,16,07,00,16.40
2015,07,16,07,01,16.40
2015,07,16,07,02,16.40
2015,07,16,07,03,16.40
2015,07,16,07,04,16.40
2015,07,16,07,05,16.40
2015,07,16,07,06,16.40
2015,07,16,07,07,16.40
2015,07,16,07,08,16.40
2015,07,16,07,09,16.40
2015,07,16,07,10,16.50
2015,07,16,07,11,16.50
2015,07,16,07,12,16.50
2015,07,16,07,13,16.50
2015,07,16,07,14,16.50
2015,07,16,07,15,16.50
2015,07,16,07,16,16.60
2015,07,16,07,17,16.60
2015,07,16,07,18,16.60
2015,07,16,07,19,16.60
2015,07,16,07,20,16.60
2015,07,16,07,21,16.60
2015,07,16,07,22,16.60
2015,07,16,07,23,16.60
2015,07,16,07,24,16.60
2015,07,16,07,25,16.60
2015,07,16,07,26,16.70
2015,07,16,07,27,16.70
2015,07,16,07,28,16.70
2015,07,16,07,29,16.70
2015,07,16,07,30,16.70
2015,07,16,07,31,16.70
2015,07,16,07,32,16.70
2015,07,16,07,33,16.80
2015,07,16,07,34,16.80
2015,07,16,07,35,16.80
2015,07,16,07,36,16.80
2015,07,16,07,37,16.80
2015,07,16,07,38,16.80
2015,07,16,07,39,16.80
2015,07,16,07,40,16.90
2015,07,16,07,41,16.90
2015,07,16,07,42,16.90
2015,07,16,07,43,17.00
2015,07,16,07,44,17.00
2015,07,16,07,45,17.00
2015,07,16,07,46,17.10
2015,07,16,07,47,17.10
2015,07,16,07,48,17.10
2015,07,16,07,49,17.10
2015,07,16,07,50,17.10
2015,07,16,07,51,17.00
2015,07,16,07,52,17.00
2015,07,16,07,53,17.00
2015,07,16,07,54,17.00
2015,07,16,07,55,17.00
2015,07,16,07,56,17.00
2015,07,16,07,57,17.00
2015,07,16,07,58,17.00
2015,07,16,07,59,17.00
2015,07,16,08,00,17.10
2015,07,16,08,01,17.10
2015,07,16,08,02,17.10
2015,07,16,08,03,17.10
2015,07,16,08,04,17.10
2015,07,16,08,05,17.10
2015,07,16,08,06,17.10
2015,07,16,08,07,17.10
2015,07,16,08,08,17.10
2015,07,16,08,09,17.10
2015,07,16,08,10,17.10
2015,07,16,08,11,17.10
2015,07,16,08,12,17.10
2015,07,16,08,13,17.10
2015,07,16,08,14,17.10
2015,07,16,08,15,17.20
2015,07,16,08,16,17.20
2015,07,16,08,17,17.20
2015,07,16,08,18,17.20
2015,07,16,08,19,17.20
2015,07,16,08,20,17.20
2015,07,16,08,21,17.20
2015,07,16,08,22,17.20
2015,07,16,08,23,17.20
2015,07,16,08,24,17.30
2015,07,16,08,25,17.30
2015,07,16,08,26,17.30
2015,07,16,08,27,17.40
2015,07,16,08,28,17.30
2015,07,16,08,29,17.30
2015,07,16,08,30,17.30
2015,07,16,08,31,17.30
2015,07,16,08,32,17.30
2015,07,16,08,33,17.30
2015,07,16,08,34,17.40
2015,07,16,08,35,17.40
2015,07,16,08,36,17.40
2015,07,16,08,37,17.40
2015,07,16,08,38,17.40
2015,07,16,08,39,17.40
2015,07,16,08,40,17.50
2015,07,16,08,41,17.50
2015,07,16,08,42,17.50
2015,07,16,08,43,17.60
2015,07,16,08,44,17.60
2015,07,16,08,45,17.60
2015,07,16,08,46,17.70
2015,07,16,08,47,17.70
2015,07,16,08,48,17.80
2015,07,16,08,49,17.80
2015,07,16,08,50,17.80
2015,07,16,08,51,17.90
2015,07,16,08,52,17.90
2015,07,16,08,53,17.90
2015,07,16,08,54,17.90
2015,07,16,08,55,17.90
2015,07,16,08,56,18.00
2015,07,16,08,57,18.00
2015,07,16,08,58,18.00
2015,07,16,08,59,18.10
2015,07,16,09,00,18.10
2015,07,16,09,01,18.10
2015,07,16,09,02,18.10
2015,07,16,09,03,18.10
2015,07,16,09,04,18.10
2015,07,16,09,05,18.10
2015,07,16,09,06,18.10
2015,07,16,09,07,18.00
2015,07,16,09,08,18.00
2015,07,16,09,09,18.00
2015,07,16,09,10,18.00
2015,07,16,09,11,18.00
2015,07,16,09,12,18.00
2015,07,16,09,13,18.10
2015,07,16,09,14,18.10
2015,07,16,09,15,18.10
2015,07,16,09,16,18.10
2015,07,16,09,17,18.20
2015,07,16,09,18,18.20
2015,07,16,09,19,18.20
2015,07,16,09,20,18.20
2015,07,16,09,21,18.20
2015,07,16,09,22,18.20
2015,07,16,09,23,18.30
2015,07,16,09,24,18.30
2015,07,16,09,25,18.40
2015,07,16,09,26,18.50
2015,07,16,09,27,18.60
2015,07,16,09,28,18.70
2015,07,16,09,29,18.70
2015,07,16,09,30,18.80
2015,07,16,09,31,18.80
2015,07,16,09,32,18.80
2015,07,16,09,33,18.80
2015,07,16,09,34,18.80
2015,07,16,09,35,18.80
2015,07,16,09,36,18.80
2015,07,16,09,37,18.80
2015,07,16,09,38,18.80
2015,07,16,09,39,18.80
2015,07,16,09,40,18.70
2015,07,16,09,41,18.70
2015,07,16,09,42,18.60
2015,07,16,09,43,18.60
2015,07,16,09,44,18.50
2015,07,16,09,45,18.50
2015,07,16,09,46,18.40
2015,07,16,09,47,18.40
2015,07,16,09,48,18.40
2015,07,16,09,49,18.40
2015,07,16,09,50,18.40
2015,07,16,09,51,18.40
2015,07,16,09,52,18.30
2015,07,16,09,53,18.30
2015,07,16,09,54,18.30
2015,07,16,09,55,18.30
2015,07,16,09,56,18.30
2015,07,16,09,57,18.30
2015,07,16,09,58,18.30
2015,07,16,09,59,18.30
2015,07,16,10,00,18.30
2015,07,16,10,01,18.30
2015,07,16,10,02,18.30
2015,07,16,10,03,18.30
2015,07,16,10,04,18.30
2015,07,16,10,05,18.30
2015,07,16,10,06,18.30
2015,07,16,10,07,18.30
2015,07,16,10,08,18.30
2015,07,16,10,09,18.30
2015,07,16,10,10,18.30
2015,07,16,10,11,18.30
2015,07,16,10,12,18.40
2015,07,16,10,13,18.40
2015,07,16,10,14,18.40
2015,07,16,10,15,18.40
2015,07,16,10,16,18.40
2015,07,16,10,17,18.40
2015,07,16,10,18,18.40
2015,07,16,10,19,18.40
2015,07,16,10,20,18.40
2015,07,16,10,21,18.50
2015,07,16,10,22,18.50
2015,07,16,10,23,18.50
2015,07,16,10,24,18.50
2015,07,16,10,25,18.60
2015,07,16,10,26,18.60
2015,07,16,10,27,18.60
2015,07,16,10,28,18.60
2015,07,16,10,29,18.60
2015,07,16,10,30,18.70
2015,07,16,10,31,18.70
2015,07,16,10,32,18.70
2015,07,16,10,33,18.80
2015,07,16,10,34,18.80
2015,07,16,10,35,18.80
2015,07,16,10,36,18.80
2015,07,16,10,37,18.80
2015,07,16,10,38,18.80
2015,07,16,10,39,18.80
2015,07,16,10,40,18.80
2015,07,16,10,41,18.90
2015,07,16,10,42,18.90
2015,07,16,10,43,19.00
2015,07,16,10,44,19.10
2015,07,16,10,45,19.10
2015,07,16,10,46,19.20
2015,07,16,10,47,19.20
2015,07,16,10,48,19.20
2015,07,16,10,49,19.30
2015,07,16,10,50,19.30
2015,07,16,10,51,19.40
2015,07,16,10,52,19.40
2015,07,16,10,53,19.40
2015,07,16,10,54,19.50
2015,07,16,10,55,19.50
2015,07,16,10,56,19.60
2015,07,16,10,57,19.60
2015,07,16,10,58,19.60
2015,07,16,10,59,19.60
2015,07,16,11,00,19.60
2015,07,16,11,01,19.60
2015,07,16,11,02,19.60
2015,07,16,11,03,19.60
2015,07,16,11,04,19.60
2015,07,16,11,05,19.60
2015,07,16,11,06,19.60
2015,07,16,11,07,19.60
2015,07,16,11,08,19.60
2015,07,16,11,09,19.60
2015,07,16,11,10,19.60
2015,07,16,11,11,19.70
2015,07,16,11,12,19.70
2015,07,16,11,13,19.60
2015,07,16,11,14,19.60
2015,07,16,11,15,19.60
2015,07,16,11,16,19.60
2015,07,16,11,17,19.60
2015,07,16,11,18,19.60
2015,07,16,11,19,19.60
2015,07,16,11,20,19.60
2015,07,16,11,21,19.60
2015,07,16,11,22,19.70
2015,07,16,11,23,19.70
2015,07,16,11,24,19.70
2015,07,16,11,25,19.70
2015,07,16,11,26,19.70
2015,07,16,11,27,19.70
2015,07,16,11,28,19.70
2015,07,16,11,29,19.70
2015,07,16,11,30,19.70
2015,07,16,11,31,19.70
2015,07,16,11,32,19.70
2015,07,16,11,33,19.70
2015,07,16,11,34,19.70
2015,07,16,11,35,19.70
2015,07,16,11,36,19.70
2015,07,16,11,37,19.70
2015,07,16,11,38,19.70
2015,07,16,11,39,19.70
2015,07,16,11,40,19.70
2015,07,16,11,41,19.80
2015,07,16,11,42,19.80
2015,07,16,11,43,19.90
2015,07,16,11,44,19.90
2015,07,16,11,45,20.00
2015,07,16,11,46,20.10
2015,07,16,11,47,20.10
2015,07,16,11,48,20.20
2015,07,16,11,49,20.20
2015,07,16,11,50,20.30
2015,07,16,11,51,20.30
2015,07,16,11,52,20.40
2015,07,16,11,53,20.50
2015,07,16,11,54,20.60
2015,07,16,11,55,20.70
2015,07,16,11,56,20.80
2015,07,16,11,57,20.90
2015,07,16,11,58,21.00
2015,07,16,11,59,21.10
2015,07,16,12,00,21.20
2015,07,16,12,01,21.30
2015,07,16,12,02,21.30
2015,07,16,12,03,21.30
2015,07,16,12,04,21.40
2015,07,16,12,05,21.40
2015,07,16,12,06,21.40
2015,07,16,12,07,21.40
2015,07,16,12,08,21.30
2015,07,16,12,09,21.30
2015,07,16,12,10,21.30
2015,07,16,12,11,21.30
2015,07,16,12,12,21.20
2015,07,16,12,13,21.20
2015,07,16,12,14,21.20
2015,07,16,12,15,21.20
2015,07,16,12,16,21.20
2015,07,16,12,17,21.20
2015,07,16,12,18,21.20
2015,07,16,12,19,21.20
2015,07,16,12,20,21.20
2015,07,16,12,21,21.30
2015,07,16,12,22,21.30
2015,07,16,12,23,21.40
2015,07,16,12,24,21.40
2015,07,16,12,25,21.30
2015,07,16,12,26,21.30
2015,07,16,12,27,21.30
2015,07,16,12,28,21.30
2015,07,16,12,29,21.30
2015,07,16,12,30,21.20
2015,07,16,12,31,21.20
2015,07,16,12,32,21.10
2015,07,16,12,33,21.20
2015,07,16,12,34,21.20
2015,07,16,12,35,21.20
2015,07,16,12,36,21.30
2015,07,16,12,37,21.30
2015,07,16,12,38,21.40
2015,07,16,12,39,21.40
2015,07,16,12,40,21.50
2015,07,16,12,41,21.60
2015,07,16,12,42,21.70
2015,07,16,12,43,21.80
2015,07,16,12,44,21.90
2015,07,16,12,45,22.00
2015,07,16,12,46,22.10
2015,07,16,12,47,22.20
2015,07,16,12,48,22.20
2015,07,16,12,49,22.30
2015,07,16,12,50,22.30
2015,07,16,12,51,22.40
2015,07,16,12,52,22.40
2015,07,16,12,53,22.50
2015,07,16,12,54,22.50
2015,07,16,12,55,22.60
2015,07,16,12,56,22.60
2015,07,16,12,57,22.60
2015,07,16,12,58,22.60
2015,07,16,12,59,22.70
2015,07,16,13,00,22.70
2015,07,16,13,01,22.80
2015,07,16,13,02,22.90
2015,07,16,13,03,22.90
2015,07,16,13,04,22.90
2015,07,16,13,05,23.00
2015,07,16,13,06,23.00
2015,07,16,13,07,23.10
2015,07,16,13,08,23.20
2015,07,16,13,09,23.30
2015,07,16,13,10,23.40
2015,07,16,13,11,23.40
2015,07,16,13,12,23.50
2015,07,16,13,13,23.50
2015,07,16,13,14,23.50
2015,07,16,13,15,23.60
2015,07,16,13,16,23.60
2015,07,16,13,17,23.60
2015,07,16,13,18,23.60
2015,07,16,13,19,23.60
2015,07,16,13,20,23.50
2015,07,16,13,21,23.40
2015,07,16,13,22,23.40
2015,07,16,13,23,23.40
2015,07,16,13,24,23.40
2015,07,16,13,25,23.40
2015,07,16,13,26,23.50
2015,07,16,13,27,23.50
2015,07,16,13,28,23.60
2015,07,16,13,29,23.70
2015,07,16,13,30,23.70
2015,07,16,13,31,23.70
2015,07,16,13,32,23.70
2015,07,16,13,33,23.70
2015,07,16,13,34,23.80
2015,07,16,13,35,23.90
2015,07,16,13,36,23.90
2015,07,16,13,37,23.90
2015,07,16,13,38,23.90
2015,07,16,13,39,23.90
2015,07,16,13,40,23.90
2015,07,16,13,41,23.90
2015,07,16,13,42,23.90
2015,07,16,13,43,24.00
2015,07,16,13,44,24.00
2015,07,16,13,45,23.90
2015,07,16,13,46,23.90
2015,07,16,13,47,23.90
2015,07,16,13,48,24.00
2015,07,16,13,49,24.00
2015,07,16,13,50,24.00
2015,07,16,13,51,24.00
2015,07,16,13,52,24.00
2015,07,16,13,53,24.00
2015,07,16,13,54,23.90
2015,07,16,13,55,23.90
2015,07,16,13,56,23.80
2015,07,16,13,57,23.80
2015,07,16,13,58,23.80
2015,07,16,13,59,23.80
2015,07,16,14,00,23.90
2015,07,16,14,01,23.80
2015,07,16,14,02,23.80
2015,07,16,14,03,23.70
2015,07,16,14,04,23.70
2015,07,16,14,05,23.60
2015,07,16,14,06,23.50
2015,07,16,14,07,23.50
2015,07,16,14,08,23.40
2015,07,16,14,09,23.40
2015,07,16,14,10,23.40
2015,07,16,14,11,23.40
2015,07,16,14,12,23.30
2015,07,16,14,13,23.30
2015,07,16,14,14,23.30
2015,07,16,14,15,23.30
2015,07,16,14,16,23.30
2015,07,16,14,17,23.20
2015,07,16,14,18,23.20
2015,07,16,14,19,23.20
2015,07,16,14,20,23.20
2015,07,16,14,21,23.20
2015,07,16,14,22,23.20
2015,07,16,14,23,23.20
2015,07,16,14,24,23.20
2015,07,16,14,25,23.20
2015,07,16,14,26,23.20
2015,07,16,14,27,23.20
2015,07,16,14,28,23.20
2015,07,16,14,29,23.20
2015,07,16,14,30,23.20
2015,07,16,14,31,23.20
2015,07,16,14,32,23.20
2015,07,16,14,33,23.20
2015,07,16,14,34,23.20
2015,07,16,14,35,23.20
2015,07,16,14,36,23.10
2015,07,16,14,37,23.20
2015,07,16,14,38,23.20
2015,07,16,14,39,23.20
2015,07,16,14,40,23.20
2015,07,16,14,41,23.20
2015,07,16,14,42,23.20
2015,07,16,14,43,23.20
2015,07,16,14,44,23.20
2015,07,16,14,45,23.20
2015,07,16,14,46,23.20
2015,07,16,14,47,23.30
2015,07,16,14,48,23.30
2015,07,16,14,49,23.30
2015,07,16,14,50,23.30
2015,07,16,14,51,23.30
2015,07,16,14,52,23.30
2015,07,16,14,53,23.30
2015,07,16,14,54,23.30
2015,07,16,14,55,23.20
2015,07,16,14,56,23.20
2015,07,16,14,57,23.20
2015,07,16,14,58,23.20
2015,07,16,14,59,23.10
2015,07,16,15,00,23.10
2015,07,16,15,01,23.00
2015,07,16,15,02,23.00
2015,07,16,15,03,23.10
2015,07,16,15,04,23.00
2015,07,16,15,05,23.00
2015,07,16,15,06,23.00
2015,07,16,15,07,23.00
2015,07,16,15,08,23.00
2015,07,16,15,09,23.00
2015,07,16,15,10,23.00
2015,07,16,15,11,22.90
2015,07,16,15,12,23.00
2015,07,16,15,13,22.90
2015,07,16,15,14,22.90
2015,07,16,15,15,22.90
2015,07,16,15,16,22.90
2015,07,16,15,17,22.90
2015,07,16,15,18,22.90
2015,07,16,15,19,22.90
2015,07,16,15,20,22.90
2015,07,16,15,21,22.90
2015,07,16,15,22,23.00
2015,07,16,15,23,23.00
2015,07,16,15,24,23.00
2015,07,16,15,25,23.10
2015,07,16,15,26,23.10
2015,07,16,15,27,23.00
2015,07,16,15,28,23.10
2015,07,16,15,29,23.10
2015,07,16,15,30,23.10
2015,07,16,15,31,23.10
2015,07,16,15,32,23.10
2015,07,16,15,33,23.10
2015,07,16,15,34,23.10
2015,07,16,15,35,23.10
2015,07,16,15,36,23.10
2015,07,16,15,37,23.10
2015,07,16,15,38,23.10
2015,07,16,15,39,23.10
2015,07,16,15,40,23.10
2015,07,16,15,41,23.10
2015,07,16,15,42,23.10
2015,07,16,15,43,23.10
2015,07,16,15,44,23.10
2015,07,16,15,45,23.10
2015,07,16,15,46,23.20
2015,07,16,15,47,23.30
2015,07,16,15,48,23.30
2015,07,16,15,49,23.30
2015,07,16,15,50,23.40
2015,07,16,15,51,23.40
2015,07,16,15,52,23.40
2015,07,16,15,53,23.40
2015,07,16,15,54,23.40
2015,07,16,15,55,23.40
2015,07,16,15,56,23.50
2015,07,16,15,57,23.60
2015,07,16,15,58,23.60
2015,07,16,15,59,23.60
2015,07,16,16,00,23.50
2015,07,16,16,01,23.50
2015,07,16,16,02,23.50
2015,07,16,16,03,23.50
2015,07,16,16,04,23.40
2015,07,16,16,05,23.40
2015,07,16,16,06,23.40
2015,07,16,16,07,23.40
2015,07,16,16,08,23.40
2015,07,16,16,09,23.40
2015,07,16,16,10,23.40
2015,07,16,16,11,23.40
2015,07,16,16,12,23.40
2015,07,16,16,13,23.40
2015,07,16,16,14,23.40
2015,07,16,16,15,23.40
2015,07,16,16,16,23.40
2015,07,16,16,17,23.40
2015,07,16,16,18,23.40
2015,07,16,16,19,23.30
2015,07,16,16,20,23.40
2015,07,16,16,21,23.40
2015,07,16,16,22,23.40
2015,07,16,16,23,23.40
2015,07,16,16,24,23.50
2015,07,16,16,25,23.50
2015,07,16,16,26,23.40
2015,07,16,16,27,23.40
2015,07,16,16,28,23.40
2015,07,16,16,29,23.40
2015,07,16,16,30,23.40
2015,07,16,16,31,23.40
2015,07,16,16,32,23.40
2015,07,16,16,33,23.40
2015,07,16,16,34,23.40
2015,07,16,16,35,23.30
2015,07,16,16,36,23.30
2015,07,16,16,37,23.30
2015,07,16,16,38,23.20
2015,07,16,16,39,23.20
2015,07,16,16,40,23.10
2015,07,16,16,41,23.10
2015,07,16,16,42,23.10
2015,07,16,16,43,23.10
2015,07,16,16,44,23.10
2015,07,16,16,45,23.20
2015,07,16,16,46,23.20
2015,07,16,16,47,23.20
2015,07,16,16,48,23.10
2015,07,16,16,49,23.20
2015,07,16,16,50,23.20
2015,07,16,16,51,23.20
2015,07,16,16,52,23.20
2015,07,16,16,53,23.20
2015,07,16,16,54,23.20
2015,07,16,16,55,23.20
2015,07,16,16,56,23.20
2015,07,16,16,57,23.20
2015,07,16,16,58,23.20
2015,07,16,16,59,23.10
2015,07,16,17,00,23.10
2015,07,16,17,01,23.10
2015,07,16,17,02,23.10
2015,07,16,17,03,23.00
2015,07,16,17,04,23.00
2015,07,16,17,05,22.90
2015,07,16,17,06,22.90
2015,07,16,17,07,22.90
2015,07,16,17,08,22.90
2015,07,16,17,09,22.90
2015,07,16,17,10,22.90
2015,07,16,17,11,22.90
2015,07,16,17,12,22.90
2015,07,16,17,13,22.90
2015,07,16,17,14,22.90
2015,07,16,17,15,22.90
2015,07,16,17,16,23.00
2015,07,16,17,17,23.00
2015,07,16,17,18,23.10
2015,07,16,17,19,23.10